| time (UTC) | temp C | wind direction | speed KPH | gust KPH | rain 1hr cm | rain 24hr cm | rain mn cm | humidity % | barometer mb |
| 20260508182504 | 12 | 274 | 3.2 | 11.3 | 0.00 | 0.00 | 0.00 | 54 | 1018.3 |
| 20260508182005 | 12 | 282 | 4.8 | 14.5 | 0.00 | 0.00 | 0.00 | 54 | 1018.2 |
| 20260508181503 | 12 | 23 | 6.4 | 14.5 | 0.00 | 0.00 | 0.00 | 54 | 1018.0 |
| 20260508181002 | 12 | 285 | 4.8 | 14.5 | 0.00 | 0.00 | 0.00 | 55 | 1018.0 |
| 20260508180502 | 12 | 275 | 4.8 | 9.7 | 0.00 | 0.00 | 0.00 | 55 | 1018.0 |
| 20260508180015 | 12 | 331 | 1.6 | 12.9 | 0.00 | 0.00 | 0.00 | 55 | 1017.9 |
| 20260508175505 | 12 | 325 | 3.2 | 12.9 | 0.00 | 0.00 | 0.00 | 56 | 1017.8 |
| 20260508174513 | 12 | 282 | 3.2 | 20.9 | 0.00 | 0.00 | 0.00 | 55 | 1017.6 |
| 20260508174008 | 12 | 304 | 6.4 | 20.9 | 0.00 | 0.00 | 0.00 | 54 | 1017.6 |
| 20260508173506 | 12 | 349 | 3.2 | 9.7 | 0.00 | 0.00 | 0.00 | 57 | 1017.6 |
| 20260508173020 | 12 | 350 | 3.2 | 14.5 | 0.00 | 0.00 | 0.00 | 56 | 1017.4 |
| 20260508172506 | 12 | 264 | 3.2 | 14.5 | 0.00 | 0.00 | 0.00 | 57 | 1017.4 |
| 20260508172009 | 12 | 352 | 3.2 | 14.5 | 0.00 | 0.00 | 0.00 | 57 | 1017.3 |
| 20260508171505 | 12 | 65 | 4.8 | 11.3 | 0.00 | 0.00 | 0.00 | 57 | 1017.3 |
| 20260508171004 | 12 | 276 | 3.2 | 11.3 | 0.00 | 0.00 | 0.00 | 58 | 1017.2 |
| 20260508170504 | 12 | 344 | 3.2 | 11.3 | 0.00 | 0.00 | 0.00 | 58 | 1017.1 |
| 20260508165503 | 12 | 278 | 3.2 | 11.3 | 0.00 | 0.00 | 0.00 | 59 | 1016.8 |
| 20260508164513 | 12 | 13 | 1.6 | 12.9 | 0.00 | 0.00 | 0.00 | 59 | 1016.8 |
| 20260508164006 | 12 | 281 | 1.6 | 12.9 | 0.00 | 0.00 | 0.00 | 59 | 1016.7 |
| 20260508163505 | 12 | 340 | 3.2 | 9.7 | 0.00 | 0.00 | 0.00 | 59 | 1016.7 |
| 20260508163018 | 12 | 278 | 3.2 | 9.7 | 0.00 | 0.00 | 0.00 | 59 | 1016.5 |
| 20260508162507 | 12 | 98 | 3.2 | 8.0 | 0.00 | 0.00 | 0.00 | 58 | 1016.5 |
| 20260508161520 | 12 | 335 | 3.2 | 9.7 | 0.00 | 0.00 | 0.00 | 59 | 1016.5 |
| 20260508161008 | 12 | 326 | 3.2 | 9.7 | 0.00 | 0.00 | 0.00 | 59 | 1016.4 |
| 20260508160503 | 12 | 254 | 3.2 | 9.7 | 0.00 | 0.00 | 0.00 | 59 | 1016.3 |
| 20260508155504 | 13 | 305 | 3.2 | 11.3 | 0.00 | 0.00 | 0.00 | 58 | 1016.4 |
| 20260508155004 | 13 | 330 | 3.2 | 12.9 | 0.00 | 0.00 | 0.00 | 59 | 1016.2 |
| 20260508154510 | 13 | 338 | 4.8 | 12.9 | 0.00 | 0.00 | 0.00 | 59 | 1016.2 |
| 20260508154006 | 13 | 28 | 4.8 | 12.9 | 0.00 | 0.00 | 0.00 | 58 | 1016.1 |
| 20260508153503 | 13 | 353 | 4.8 | 12.9 | 0.00 | 0.00 | 0.00 | 59 | 1016.0 |
| 20260508153010 | 13 | 293 | 4.8 | 12.9 | 0.00 | 0.00 | 0.00 | 57 | 1016.0 |
| 20260508152509 | 13 | 295 | 3.2 | 12.9 | 0.00 | 0.00 | 0.00 | 58 | 1015.9 |
| 20260508152007 | 13 | 304 | 4.8 | 12.9 | 0.00 | 0.00 | 0.00 | 59 | 1015.9 |
| 20260508151514 | 13 | 54 | 4.8 | 11.3 | 0.00 | 0.00 | 0.00 | 58 | 1015.8 |
| 20260508151002 | 13 | 20 | 3.2 | 11.3 | 0.00 | 0.00 | 0.00 | 59 | 1015.8 |
| 20260508150502 | 13 | 44 | 3.2 | 16.1 | 0.00 | 0.00 | 0.00 | 57 | 1015.7 |
| 20260508150004 | 13 | 248 | 6.4 | 16.1 | 0.00 | 0.00 | 0.00 | 52 | 1015.5 |
| 20260508145504 | 14 | 6 | 4.8 | 17.7 | 0.00 | 0.00 | 0.00 | 52 | 1015.6 |
| 20260508145002 | 14 | 319 | 6.4 | 20.9 | 0.00 | 0.00 | 0.00 | 52 | 1015.5 |
| 20260508144503 | 14 | 237 | 4.8 | 20.9 | 0.00 | 0.00 | 0.00 | 54 | 1015.4 |
| 20260508144003 | 14 | 338 | 6.4 | 22.5 | 0.00 | 0.00 | 0.00 | 54 | 1015.5 |
| 20260508143505 | 13 | 180 | 6.4 | 22.5 | 0.00 | 0.00 | 0.00 | 53 | 1015.5 |
| 20260508143008 | 14 | 281 | 8.0 | 20.9 | 0.00 | 0.00 | 0.00 | 51 | 1015.4 |
| 20260508142503 | 15 | 239 | 6.4 | 12.9 | 0.00 | 0.00 | 0.00 | 52 | 1015.4 |
| 20260508142003 | 14 | 268 | 8.0 | 12.9 | 0.00 | 0.00 | 0.00 | 52 | 1015.3 |
| 20260508141516 | 14 | 98 | 4.8 | 17.7 | 0.00 | 0.00 | 0.00 | 54 | 1015.2 |
| 20260508141006 | 14 | 10 | 6.4 | 17.7 | 0.00 | 0.00 | 0.00 | 52 | 1015.1 |
| 20260508140507 | 14 | 340 | 3.2 | 19.3 | 0.00 | 0.00 | 0.00 | 54 | 1015.1 |
| 20260508140019 | 13 | 297 | 4.8 | 20.9 | 0.00 | 0.00 | 0.00 | 55 | 1015.0 |
| 20260508135510 | 13 | 314 | 6.4 | 20.9 | 0.00 | 0.00 | 0.00 | 53 | 1015.0 |
| 20260508135002 | 14 | 200 | 4.8 | 14.5 | 0.00 | 0.00 | 0.00 | 54 | 1014.9 |
| 20260508134508 | 13 | 283 | 6.4 | 16.1 | 0.00 | 0.00 | 0.00 | 55 | 1014.9 |
| 20260508134004 | 13 | 263 | 4.8 | 16.1 | 0.00 | 0.00 | 0.00 | 55 | 1014.8 |
| 20260508133504 | 13 | 243 | 6.4 | 16.1 | 0.00 | 0.00 | 0.00 | 53 | 1014.8 |
| 20260508133014 | 13 | 294 | 6.4 | 12.9 | 0.00 | 0.00 | 0.00 | 51 | 1014.6 |
| 20260508132504 | 14 | 283 | 4.8 | 14.5 | 0.00 | 0.00 | 0.00 | 53 | 1014.5 |
| 20260508132003 | 14 | 309 | 4.8 | 14.5 | 0.00 | 0.00 | 0.00 | 52 | 1014.6 |
| 20260508131508 | 14 | 221 | 4.8 | 11.3 | 0.00 | 0.00 | 0.00 | 52 | 1014.5 |
| 20260508131004 | 13 | 260 | 4.8 | 20.9 | 0.00 | 0.00 | 0.00 | 51 | 1014.5 |
| 20260508130503 | 13 | 231 | 4.8 | 22.5 | 0.00 | 0.00 | 0.00 | 49 | 1014.5 |
| 20260508130017 | 13 | 307 | 8.0 | 22.5 | 0.00 | 0.00 | 0.00 | 48 | 1014.4 |
| 20260508125508 | 13 | 291 | 8.0 | 19.3 | 0.00 | 0.00 | 0.00 | 49 | 1014.4 |
| 20260508125007 | 13 | 334 | 8.0 | 17.7 | 0.00 | 0.00 | 0.00 | 51 | 1014.3 |
| 20260508124515 | 13 | 297 | 3.2 | 16.1 | 0.00 | 0.00 | 0.00 | 54 | 1014.2 |
| 20260508124012 | 13 | 288 | 4.8 | 16.1 | 0.00 | 0.00 | 0.00 | 52 | 1014.3 |
| 20260508123503 | 13 | 299 | 4.8 | 16.1 | 0.00 | 0.00 | 0.00 | 52 | 1014.2 |
| 20260508123004 | 14 | 7 | 8.0 | 16.1 | 0.00 | 0.00 | 0.00 | 51 | 1014.2 |
| 20260508122506 | 14 | 302 | 4.8 | 9.7 | 0.00 | 0.00 | 0.00 | 50 | 1014.1 |
| 20260508122004 | 14 | 266 | 4.8 | 14.5 | 0.00 | 0.00 | 0.00 | 50 | 1014.0 |
| 20260508121523 | 13 | 248 | 4.8 | 14.5 | 0.00 | 0.00 | 0.00 | 50 | 1014.0 |
| 20260508121004 | 13 | 249 | 6.4 | 14.5 | 0.00 | 0.00 | 0.00 | 52 | 1014.0 |
| 20260508120507 | 13 | 331 | 8.0 | 14.5 | 0.00 | 0.00 | 0.00 | 50 | 1014.0 |
| 20260508120013 | 13 | 262 | 6.4 | 12.9 | 0.00 | 0.00 | 0.00 | 51 | 1013.9 |
| 20260508115505 | 13 | 280 | 4.8 | 16.1 | 0.00 | 0.00 | 0.00 | 52 | 1013.9 |
| 20260508115005 | 13 | 99 | 4.8 | 16.1 | 0.00 | 0.00 | 0.00 | 51 | 1013.8 |
| 20260508114515 | 13 | 49 | 4.8 | 16.1 | 0.00 | 0.00 | 0.00 | 49 | 1013.7 |
| 20260508113507 | 13 | 288 | 6.4 | 16.1 | 0.00 | 0.00 | 0.00 | 50 | 1013.6 |
| 20260508113021 | 13 | 303 | 3.2 | 22.5 | 0.00 | 0.00 | 0.00 | 50 | 1013.6 |
| 20260508112507 | 13 | 297 | 4.8 | 22.5 | 0.00 | 0.00 | 0.00 | 52 | 1013.6 |
| 20260508112008 | 13 | 298 | 4.8 | 16.1 | 0.00 | 0.00 | 0.00 | 53 | 1013.5 |
| 20260508111504 | 13 | 205 | 6.4 | 17.7 | 0.00 | 0.00 | 0.00 | 54 | 1013.5 |
| 20260508111004 | 12 | 308 | 4.8 | 17.7 | 0.00 | 0.00 | 0.00 | 54 | 1013.4 |
| 20260508110503 | 12 | 70 | 8.0 | 17.7 | 0.00 | 0.00 | 0.00 | 52 | 1013.4 |
| 20260508110010 | 13 | 227 | 4.8 | 17.7 | 0.00 | 0.00 | 0.00 | 54 | 1013.5 |
| 20260508105509 | 13 | 238 | 4.8 | 16.1 | 0.00 | 0.00 | 0.00 | 55 | 1013.4 |
| 20260508105005 | 12 | 245 | 3.2 | 16.1 | 0.00 | 0.00 | 0.00 | 55 | 1013.4 |
| 20260508104511 | 12 | 204 | 4.8 | 17.7 | 0.00 | 0.00 | 0.00 | 54 | 1013.3 |
| 20260508104007 | 12 | 251 | 6.4 | 17.7 | 0.00 | 0.00 | 0.00 | 55 | 1013.2 |
| 20260508103504 | 12 | 266 | 4.8 | 17.7 | 0.00 | 0.00 | 0.00 | 55 | 1013.2 |
| 20260508103018 | 12 | 8 | 8.0 | 17.7 | 0.00 | 0.00 | 0.00 | 56 | 1013.2 |
| 20260508102508 | 12 | 278 | 4.8 | 17.7 | 0.00 | 0.00 | 0.00 | 58 | 1013.2 |
| 20260508102008 | 12 | 188 | 6.4 | 17.7 | 0.00 | 0.00 | 0.00 | 58 | 1013.1 |
| 20260508101520 | 11 | 218 | 4.8 | 17.7 | 0.00 | 0.00 | 0.00 | 60 | 1013.1 |
| 20260508101013 | 11 | 252 | 9.7 | 17.7 | 0.00 | 0.00 | 0.00 | 59 | 1013.1 |
| 20260508100507 | 12 | 172 | 8.0 | 17.7 | 0.00 | 0.00 | 0.00 | 59 | 1013.2 |
| 20260508100006 | 11 | 293 | 3.2 | 17.7 | 0.00 | 0.00 | 0.00 | 60 | 1013.1 |
| 20260508095503 | 11 | 221 | 6.4 | 17.7 | 0.00 | 0.00 | 0.00 | 59 | 1013.1 |
| 20260508095002 | 11 | 342 | 3.2 | 14.5 | 0.00 | 0.00 | 0.00 | 58 | 1013.1 |
| 20260508094508 | 11 | 248 | 1.6 | 20.9 | 0.00 | 0.00 | 0.00 | 60 | 1013.1 |
| 20260508094003 | 11 | 45 | 6.4 | 20.9 | 0.00 | 0.00 | 0.00 | 59 | 1013.0 |
| 20260508093502 | 11 | 253 | 6.4 | 22.5 | 0.00 | 0.00 | 0.00 | 59 | 1012.9 |
| 20260508093002 | 11 | 255 | 9.7 | 24.1 | 0.00 | 0.00 | 0.00 | 59 | 1012.8 |
| 20260508092502 | 11 | 200 | 6.4 | 24.1 | 0.00 | 0.00 | 0.00 | 60 | 1012.8 |
| 20260508092003 | 11 | 147 | 6.4 | 22.5 | 0.00 | 0.00 | 0.00 | 60 | 1012.6 |
| 20260508091508 | 11 | 274 | 9.7 | 24.1 | 0.00 | 0.00 | 0.00 | 61 | 1012.5 |
| 20260508091002 | 11 | 204 | 11.3 | 24.1 | 0.00 | 0.00 | 0.00 | 61 | 1012.5 |
| 20260508090503 | 11 | 248 | 6.4 | 19.3 | 0.00 | 0.00 | 0.00 | 61 | 1012.7 |
| 20260508090005 | 11 | 223 | 6.4 | 14.5 | 0.00 | 0.00 | 0.00 | 61 | 1012.7 |
| 20260508085503 | 11 | 252 | 8.0 | 14.5 | 0.00 | 0.00 | 0.00 | 61 | 1012.5 |
| 20260508085003 | 11 | 206 | 3.2 | 12.9 | 0.00 | 0.00 | 0.00 | 62 | 1012.5 |
| 20260508084504 | 11 | 166 | 3.2 | 12.9 | 0.00 | 0.00 | 0.00 | 62 | 1012.5 |
| 20260508084003 | 11 | 294 | 3.2 | 14.5 | 0.00 | 0.00 | 0.00 | 62 | 1012.4 |
| 20260508083503 | 11 | 216 | 4.8 | 14.5 | 0.00 | 0.00 | 0.00 | 62 | 1012.4 |
| 20260508083033 | 11 | 248 | 3.2 | 16.1 | 0.00 | 0.00 | 0.00 | 63 | 1012.4 |
| 20260508082506 | 10 | 205 | 4.8 | 20.9 | 0.00 | 0.00 | 0.00 | 63 | 1012.3 |
| 20260508082004 | 10 | 192 | 8.0 | 20.9 | 0.00 | 0.00 | 0.00 | 63 | 1012.3 |
| 20260508081503 | 10 | 255 | 4.8 | 12.9 | 0.00 | 0.00 | 0.00 | 65 | 1012.3 |
| 20260508081002 | 10 | 249 | 4.8 | 14.5 | 0.00 | 0.00 | 0.00 | 65 | 1012.2 |
| 20260508080502 | 10 | 234 | 4.8 | 14.5 | 0.00 | 0.00 | 0.00 | 64 | 1012.1 |
| 20260508080004 | 10 | 212 | 4.8 | 12.9 | 0.00 | 0.00 | 0.00 | 64 | 1012.1 |
| 20260508075503 | 10 | 191 | 4.8 | 11.3 | 0.00 | 0.00 | 0.00 | 65 | 1012.0 |
| 20260508075003 | 10 | 248 | 4.8 | 17.7 | 0.00 | 0.00 | 0.00 | 65 | 1011.8 |
| 20260508074504 | 10 | 214 | 4.8 | 17.7 | 0.00 | 0.00 | 0.00 | 66 | 1011.9 |
| 20260508074005 | 10 | 218 | 4.8 | 17.7 | 0.00 | 0.00 | 0.00 | 66 | 1011.8 |
| 20260508073503 | 10 | 214 | 6.4 | 17.7 | 0.00 | 0.00 | 0.00 | 67 | 1011.7 |
| 20260508073009 | 10 | 257 | 6.4 | 16.1 | 0.00 | 0.00 | 0.00 | 67 | 1011.7 |
| 20260508072505 | 10 | 273 | 6.4 | 17.7 | 0.00 | 0.00 | 0.00 | 69 | 1011.6 |
| 20260508072004 | 10 | 210 | 6.4 | 17.7 | 0.00 | 0.00 | 0.00 | 69 | 1011.5 |
| 20260508071508 | 9 | 252 | 4.8 | 14.5 | 0.00 | 0.00 | 0.00 | 70 | 1011.4 |
| 20260508071006 | 9 | 266 | 6.4 | 14.5 | 0.00 | 0.00 | 0.00 | 70 | 1011.4 |
| 20260508070508 | 9 | 224 | 6.4 | 16.1 | 0.00 | 0.00 | 0.00 | 70 | 1011.3 |
| 20260508070004 | 9 | 215 | 8.0 | 16.1 | 0.00 | 0.00 | 0.00 | 70 | 1011.3 |
| 20260508065501 | 9 | 239 | 9.7 | 16.1 | 0.00 | 0.00 | 0.00 | 71 | 1011.1 |
| 20260508065002 | 9 | 262 | 6.4 | 12.9 | 0.00 | 0.00 | 0.00 | 72 | 1011.1 |
| 20260508064506 | 9 | 191 | 3.2 | 8.0 | 0.00 | 0.00 | 0.00 | 73 | 1011.1 |
| 20260508064001 | 8 | 209 | 3.2 | 6.4 | 0.00 | 0.00 | 0.00 | 73 | 1011.1 |
| 20260508063503 | 8 | 258 | 1.6 | 6.4 | 0.00 | 0.00 | 0.00 | 73 | 1011.1 |
| 20260508063005 | 8 | 292 | 3.2 | 4.8 | 0.00 | 0.00 | 0.00 | 73 | 1011.1 |
| 20260508062505 | 8 | 190 | 1.6 | 4.8 | 0.00 | 0.00 | 0.00 | 73 | 1011.0 |
| 20260508062005 | 8 | 229 | 0.0 | 1.6 | 0.00 | 0.00 | 0.00 | 74 | 1010.9 |
| 20260508061509 | 8 | 221 | 0.0 | 3.2 | 0.00 | 0.00 | 0.00 | 74 | 1010.9 |
| 20260508061005 | 8 | 221 | 0.0 | 3.2 | 0.00 | 0.00 | 0.00 | 73 | 1010.8 |
| 20260508060506 | 8 | 288 | 0.0 | 3.2 | 0.00 | 0.00 | 0.00 | 73 | 1010.8 |
| 20260508060013 | 8 | 276 | 1.6 | 9.7 | 0.00 | 0.00 | 0.00 | 73 | 1010.8 |
| 20260508055507 | 8 | 236 | 1.6 | 9.7 | 0.00 | 0.00 | 0.00 | 73 | 1010.7 |
| 20260508055006 | 8 | 288 | 1.6 | 12.9 | 0.00 | 0.00 | 0.00 | 73 | 1010.6 |
| 20260508054517 | 8 | 273 | 4.8 | 12.9 | 0.00 | 0.00 | 0.00 | 73 | 1010.5 |
| 20260508054001 | 8 | 203 | 4.8 | 12.9 | 0.00 | 0.00 | 0.00 | 73 | 1010.5 |
| 20260508053502 | 8 | 248 | 4.8 | 12.9 | 0.00 | 0.00 | 0.00 | 74 | 1010.3 |
| 20260508053002 | 8 | 264 | 3.2 | 12.9 | 0.00 | 0.00 | 0.00 | 75 | 1010.2 |
| 20260508052504 | 8 | 268 | 4.8 | 11.3 | 0.00 | 0.00 | 0.00 | 75 | 1010.3 |
| 20260508052003 | 8 | 258 | 1.6 | 8.0 | 0.00 | 0.00 | 0.00 | 76 | 1010.3 |
| 20260508051005 | 8 | 226 | 1.6 | 6.4 | 0.00 | 0.00 | 0.00 | 76 | 1010.2 |
| 20260508050506 | 8 | 271 | 3.2 | 8.0 | 0.00 | 0.00 | 0.00 | 76 | 1010.2 |
| 20260508050010 | 8 | 236 | 3.2 | 8.0 | 0.00 | 0.00 | 0.00 | 76 | 1010.2 |
| 20260508045505 | 8 | 234 | 3.2 | 8.0 | 0.00 | 0.00 | 0.00 | 76 | 1010.2 |
| 20260508045005 | 8 | 259 | 3.2 | 8.0 | 0.00 | 0.00 | 0.00 | 76 | 1010.1 |
| 20260508044518 | 8 | 238 | 1.6 | 9.7 | 0.00 | 0.00 | 0.00 | 76 | 1010.1 |
| 20260508044006 | 8 | 235 | 1.6 | 9.7 | 0.00 | 0.00 | 0.00 | 76 | 1010.0 |
| 20260508043505 | 8 | 264 | 3.2 | 9.7 | 0.00 | 0.00 | 0.00 | 76 | 1009.9 |
| 20260508042512 | 8 | 280 | 3.2 | 9.7 | 0.00 | 0.00 | 0.00 | 76 | 1009.9 |
| 20260508042002 | 8 | 187 | 1.6 | 4.8 | 0.00 | 0.00 | 0.00 | 76 | 1009.9 |
| 20260508041506 | 9 | 233 | 1.6 | 4.8 | 0.00 | 0.00 | 0.00 | 75 | 1010.0 |
| 20260508041002 | 9 | 240 | 1.6 | 11.3 | 0.00 | 0.00 | 0.00 | 75 | 1009.9 |
| 20260508040503 | 9 | 243 | 3.2 | 11.3 | 0.00 | 0.00 | 0.00 | 75 | 1009.9 |
| 20260508034007 | 9 | 21 | 4.8 | 14.5 | 0.00 | 0.00 | 0.00 | 74 | 1009.7 |
| 20260508031504 | 10 | 236 | 3.2 | 12.9 | 0.00 | 0.00 | 0.00 | 72 | 1009.5 |
| 20260508024508 | 10 | 191 | 4.8 | 14.5 | 0.00 | 0.00 | 0.00 | 71 | 1009.4 |
| 20260508024003 | 10 | 239 | 6.4 | 17.7 | 0.00 | 0.00 | 0.00 | 70 | 1009.4 |
| 20260508023503 | 10 | 218 | 8.0 | 17.7 | 0.00 | 0.00 | 0.00 | 70 | 1009.4 |
| 20260508014503 | 10 | 252 | 4.8 | 11.3 | 0.00 | 0.00 | 0.00 | 68 | 1009.2 |
| 20260508011518 | 10 | 288 | 3.2 | 11.3 | 0.00 | 0.00 | 0.00 | 68 | 1009.1 |
| 20260508003502 | 10 | 214 | 4.8 | 14.5 | 0.00 | 0.00 | 0.00 | 67 | 1009.0 |
| 20260508000017 | 10 | 234 | 8.0 | 16.1 | 0.00 | 0.00 | 0.00 | 66 | 1008.8 |
| 20260507225508 | 10 | 250 | 4.8 | 14.5 | 0.00 | 0.00 | 0.00 | 65 | 1009.0 |
| 20260507220012 | 10 | 213 | 0.0 | 6.4 | 0.00 | 0.00 | 0.00 | 67 | 1009.3 |
| 20260507215504 | 10 | 208 | 0.0 | 4.8 | 0.00 | 0.00 | 0.00 | 66 | 1009.3 |
| 20260507215006 | 10 | 223 | 0.0 | 11.3 | 0.00 | 0.00 | 0.00 | 66 | 1009.4 |
| 20260507214502 | 10 | 211 | 3.2 | 11.3 | 0.00 | 0.00 | 0.00 | 65 | 1009.5 |
| 20260507214003 | 10 | 207 | 1.6 | 9.7 | 0.00 | 0.00 | 0.00 | 66 | 1009.5 |
| 20260507213504 | 10 | 257 | 1.6 | 9.7 | 0.00 | 0.00 | 0.00 | 66 | 1009.4 |
| 20260507213004 | 10 | 182 | 1.6 | 6.4 | 0.00 | 0.00 | 0.00 | 66 | 1009.3 |
| 20260507212503 | 10 | 193 | 1.6 | 6.4 | 0.00 | 0.00 | 0.00 | 67 | 1009.2 |
| 20260507212002 | 10 | 215 | 0.0 | 9.7 | 0.00 | 0.00 | 0.00 | 68 | 1009.0 |
| 20260507211502 | 10 | 196 | 3.2 | 9.7 | 0.00 | 0.00 | 0.00 | 68 | 1009.0 |
| 20260507211002 | 10 | 200 | 0.0 | 3.2 | 0.00 | 0.00 | 0.00 | 68 | 1009.2 |
| 20260507210502 | 10 | 203 | 0.0 | 9.7 | 0.00 | 0.00 | 0.00 | 68 | 1009.2 |
| 20260507210002 | 10 | 210 | 3.2 | 9.7 | 0.00 | 0.00 | 0.00 | 68 | 1009.2 |
| 20260507205502 | 10 | 207 | 1.6 | 6.4 | 0.00 | 0.00 | 0.00 | 69 | 1009.2 |
| 20260507205002 | 10 | 225 | 3.2 | 8.0 | 0.00 | 0.00 | 0.00 | 69 | 1009.2 |
| 20260507204503 | 10 | 232 | 3.2 | 8.0 | 0.00 | 0.00 | 0.00 | 69 | 1009.1 |
| 20260507204001 | 10 | 194 | 1.6 | 8.0 | 0.00 | 0.00 | 0.00 | 69 | 1009.1 |
| 20260507203505 | 11 | 179 | 1.6 | 6.4 | 0.00 | 0.00 | 0.00 | 68 | 1009.0 |
| 20260507203003 | 11 | 158 | 1.6 | 4.8 | 0.00 | 0.00 | 0.00 | 67 | 1009.0 |
| 20260507202502 | 11 | 269 | 0.0 | 8.0 | 0.00 | 0.00 | 0.00 | 67 | 1008.9 |
| 20260507202002 | 11 | 200 | 1.6 | 9.7 | 0.00 | 0.00 | 0.00 | 66 | 1008.9 |
| 20260507201503 | 11 | 20 | 3.2 | 9.7 | 0.00 | 0.00 | 0.00 | 66 | 1008.9 |
| 20260507201004 | 11 | 164 | 3.2 | 9.7 | 0.00 | 0.00 | 0.00 | 66 | 1008.8 |
| 20260507200502 | 11 | 222 | 3.2 | 6.4 | 0.00 | 0.00 | 0.00 | 66 | 1008.8 |
| 20260507200002 | 11 | 222 | 3.2 | 9.7 | 0.00 | 0.00 | 0.00 | 66 | 1008.8 |
| 20260507195502 | 11 | 222 | 3.2 | 9.7 | 0.00 | 0.00 | 0.00 | 66 | 1008.9 |
| 20260507195002 | 11 | 136 | 3.2 | 9.7 | 0.00 | 0.00 | 0.00 | 65 | 1008.8 |
| 20260507194503 | 11 | 216 | 3.2 | 11.3 | 0.00 | 0.00 | 0.00 | 65 | 1008.7 |
| 20260507194002 | 11 | 166 | 4.8 | 11.3 | 0.00 | 0.00 | 0.00 | 64 | 1008.5 |
| 20260507193502 | 11 | 225 | 4.8 | 14.5 | 0.00 | 0.00 | 0.00 | 64 | 1008.4 |
| 20260507193005 | 11 | 203 | 3.2 | 14.5 | 0.00 | 0.00 | 0.00 | 64 | 1008.6 |
| 20260507192001 | 12 | 275 | 3.2 | 12.9 | 0.00 | 0.00 | 0.00 | 64 | 1008.6 |
| 20260507191503 | 12 | 214 | 4.8 | 12.9 | 0.00 | 0.00 | 0.00 | 63 | 1008.5 |
| 20260507191003 | 12 | 221 | 3.2 | 14.5 | 0.00 | 0.00 | 0.00 | 63 | 1008.6 |
| 20260507190503 | 12 | 197 | 4.8 | 16.1 | 0.00 | 0.00 | 0.00 | 63 | 1008.7 |
| 20260507190008 | 12 | 213 | 6.4 | 16.1 | 0.00 | 0.00 | 0.00 | 63 | 1008.7 |
| 20260507185503 | 12 | 250 | 6.4 | 16.1 | 0.00 | 0.00 | 0.00 | 61 | 1008.7 |
| 20260507185002 | 12 | 207 | 1.6 | 14.5 | 0.00 | 0.00 | 0.00 | 62 | 1008.5 |
| 20260507184503 | 13 | 127 | 6.4 | 14.5 | 0.00 | 0.00 | 0.00 | 61 | 1008.5 |
| 20260507184001 | 13 | 162 | 4.8 | 12.9 | 0.00 | 0.00 | 0.00 | 61 | 1008.4 |
| 20260507183502 | 13 | 134 | 3.2 | 12.9 | 0.00 | 0.00 | 0.00 | 61 | 1008.5 |
| 20260507183008 | 13 | 181 | 4.8 | 12.9 | 0.00 | 0.00 | 0.00 | 61 | 1008.5 |